User: anonymous   Login
Location: Corralito
(10.2667°N, 66.9500°W)
Time: 08:08:45
(UTC+00:00)
Language:

FENGYUN 1C DEB - Orbit

View from above orbital plane
View from above orbital plane
View from above satellite
View from above satellite

Ground track
Ground track

The orbit data is extracted from the following two-line orbital elements,

1 31161U 99025BHP 24203.87702475  .00001353  00000-0  80064-3 0  9991
2 31161  98.7968 233.0624 0069090 347.2593  12.6829 14.08191547889371
Epoch (UTC): 21 July 2024 21:02:54
Eccentricity: 0.0069090
inclination: 98.7968°
perigee height: 815 km
apogee height: 915 km
right ascension of ascending node: 233.0624°
argument of perigee: 347.2593°
revolutions per day: 14.08191547
mean anomaly at epoch: 12.6829°
orbit number at epoch: 88937

The dashed part of the orbit path shows where the satellite is in the earth's shadow,  

DLR